Location: Garbet
(42.8837°N, 1.2115°E)
Time: 04:40:07
(UTC+00:00)

Cosmos 1953 Rocket - Pass Details

Date: 19 March 2026
Orbit: 599 x 626 km, 82.5° (Epoch: 15 April)

Event Time Altitude Azimuth Distance (km) Brightness Sun altitude
Rises 04:42:34 0° 3° (N) 2,892 7.2 -15.0°
Reaches altitude 10° 04:45:04 10° 15° (NNE) 1,987 6.5 -14.5°
Maximum altitude 04:48:50 27° 74° (ENE) 1,198 5.9 -13.9°
Drops below altitude 10° 04:52:35 10° 133° (SE) 1,987 6.7 -13.2°
Sets 04:55:05 0° 145° (SE) 2,891 7.3 -12.7°
